Date,TemperatureHighF,TemperatureAvgF,TemperatureLowF,DewpointHighF,DewpointAvgF,DewpointLowF,HumidityHigh,HumidityAvg,HumidityLow,PressureMaxIn,PressureMinIn,WindSpeedMaxMPH,WindSpeedAvgMPH,GustSpeedMaxMPH,PrecipitationSumIn
2013-1-1,50,48,43,49,43,29,97,84,52,30.03,29.84,6,2,7,0.80
2013-1-2,50,45,39,49,41,36,97,86,72,30.02,29.80,20,5,20,0.05
2013-1-3,52,39,32,37,33,23,92,79,43,30.18,29.98,9,5,11,0.00
2013-1-4,53,38,26,30,20,11,80,52,21,30.25,30.15,21,6,21,0.00
2013-1-5,51,38,25,35,23,16,84,57,35,30.26,30.13,13,3,13,0.02
2013-1-6,51,43,37,39,34,29,85,71,58,30.14,30.00,19,8,20,0.01
2013-1-7,58,44,31,33,28,24,78,57,34,30.28,30.09,12,5,14,0.00
2013-1-8,51,43,31,39,33,25,79,66,53,30.30,30.20,11,4,11,0.00
2013-1-9,67,56,49,52,46,38,86,70,55,30.33,30.24,8,2,8,0.00
2013-1-10,67,59,54,55,51,49,91,75,59,30.34,30.17,13,4,14,0.02
2013-1-11,67,61,58,64,59,55,95,92,79,30.17,30.03,13,5,14,0.27
2013-1-12,72,64,56,64,58,55,96,82,61,30.08,29.98,11,2,12,0.01
2013-1-13,71,66,59,59,57,54,91,74,63,30.03,29.95,17,6,17,0.02
2013-1-14,65,61,55,62,58,53,93,91,84,30.03,29.94,17,5,18,0.63
2013-1-15,62,59,54,60,57,52,95,93,90,30.01,29.88,13,4,13,0.58
2013-1-16,59,54,50,57,52,49,96,94,89,29.92,29.82,8,2,9,0.24
2013-1-17,56,49,36,54,47,32,96,93,82,30.09,29.58,27,5,29,0.72
2013-1-18,60,43,31,33,26,22,86,56,24,30.37,30.09,11,4,11,0.01
2013-1-19,57,40,28,33,26,19,86,60,25,30.33,30.09,9,2,11,0.00
2013-1-20,66,47,32,39,31,24,78,55,26,30.09,29.97,14,5,17,0.00
2013-1-21,60,45,33,33,26,14,77,50,32,30.01,29.93,27,8,27,0.00
2013-1-22,46,35,28,15,8,1,49,33,21,30.16,29.98,27,10,27,0.00
2013-1-23,51,39,27,30,20,8,65,47,34,30.24,30.03,23,6,25,0.00
2013-1-24,53,45,33,40,21,0,75,43,18,30.28,29.95,24,9,26,0.00
2013-1-25,36,28,25,31,14,0,87,58,29,30.31,30.01,15,5,21,0.00
2013-1-26,60,43,35,38,32,25,96,69,30,30.16,29.99,12,6,13,0.04
2013-1-27,50,42,34,33,30,26,74,63,52,30.38,30.15,12,5,14,0.00
2013-1-28,52,44,41,42,33,29,93,66,61,30.31,30.17,8,2,8,0.00
2013-1-29,70,57,42,58,51,40,95,81,57,30.18,29.90,13,2,13,0.04
2013-1-30,65,56,43,61,51,35,92,84,72,29.91,29.46,37,11,37,2.06
2013-1-31,49,40,33,35,23,16,75,51,31,30.01,29.64,31,13,34,0.00